Regional Weather Roundup
Issued by NWS Bismarck, ND

Home | Current Version | Previous Version | Text Only | Print | Product List | Glossary On
Versions: 1 2 3 4 5 6 7 8 9 10 11 12 13 14 15 16 17 18 19 20 21 22 23 24 25 26 27 28 29 30 31 32 33 34 35 36 37 38 39 40 41 42 43 44 45 46 47 48 49 50
000
ASUS43 KBIS 220859
RWRBIS

NWR BROADCAST TEXT
NATIONAL WEATHER SERVICE BISMARCK ND
300 AM CST SAT NOV 22 2014

NOTE: "FAIR" INDICATES FEW OR NO CLOUDS BELOW 12,000 FEET WITH NO
SIGNIFICANT WEATHER AND/OR OBSTRUCTIONS TO VISIBILITY.


CITY           SKY/WX    TMP DP  RH WIND       PRES   REMARKS
WILLISTON      CLEAR     27  25  92 CALM      29.58F
MINOT          CLEAR     32  26  78 SW8       29.58S
MINOT AFB      NOT AVBL
BISMARCK       CLEAR     28  24  85 CALM      29.65F
DICKINSON      NOT AVBL
GARRISON         N/A     30  27  88 W6        29.60F
HETTINGER ARPT CLEAR     28  21  75 SW3       29.66F
JAMESTOWN      NOT AVBL
CROSBY         FAIR      27  27 100 SW10      29.56F WCI  17
$$

CITY           SKY/WX    TMP DP  RH WIND       PRES   REMARKS
GRAND FORKS    CLEAR     26  23  88 SW5       29.62R
GRAND FORKS AF NOT AVBL
DEVILS LAKE    PTCLDY    30  21  69 SW10      29.58F
FARGO          PTCLDY    28  23  81 S8        29.67S WCI  20
GRAFTON        FAIR      28  27  93 CALM      29.60S
$$

CITY           SKY/WX    TMP DP  RH WIND       PRES   REMARKS
ABERDEEN       CLEAR     22  19  89 S9        29.73S WCI  12
MOBRIDGE       CLEAR     29  26  89 SE6       29.68F
BUFFALO          N/A     34  24  67 W3        29.58F
RAPID CITY     CLEAR     28  20  71 SE3       29.69F
GLASGOW        PTCLDY    31  27  85 E13       29.48F
SIDNEY         CLEAR     30  25  80 S8        29.59F
WOLF POINT     PTCLDY    21  18  88 E3        29.54F
GLENDIVE       CLEAR     28  25  86 S9        29.59F WCI  20
MILES CITY     MOCLDY    32  25  75 S9        29.57F
BAKER          CLEAR     37  25  61 SW13      29.60F
$$

CITY           SKY/WX    TMP DP  RH WIND       PRES   REMARKS
BILLINGS       CLOUDY    40  24  53 SW10      29.53F
GREAT FALLS    CLOUDY    43  28  55 S12       29.35F
$$



USA.gov is the U.S. government's official web portal to all federal, state and local government web resources and services.